Whiting Fld NAS, FL

7:26 PM CST on February 20, 2018 (GMT -0600)
Whiting Field Naval Air Station (North)

Weather History for KNSE - July, 2013

Change the Weather History Date:

Sunday, July 28, 2013

  Actual Average Record
Temperature  
Mean Temperature 82 °F -  
Max Temperature 90 °F 87 °F 97 °F (2006)
Min Temperature 73 °F 70 °F 69 °F (2000)
Cooling Degree Days 16    
Growing Degree Days 32 (Base 50)    
Moisture  
Dew Point 72 °F    
Average Humidity 81    
Maximum Humidity 94    
Minimum Humidity 57    
Precipitation  
Precipitation 0.11 in - - ()
Sea Level Pressure  
Sea Level Pressure 29.92 in    
Wind  
Wind Speed 7 mph (SSE)    
Max Wind Speed 17 mph    
Max Gust Speed 16 mph    
Visibility 9 miles    
Events Rain    
Averages and records for this station are not official NWS values.
T = Trace of Precipitation, MM = Missing Value Source: NWS Daily Summary

Daily Weather History Graph

Daily Weather History Graph

Search for Another Location

Airport or City:

Trip Planner

Search our weather history database for the weather conditions in past years. The results will help you decide how hot, cold, wet, or windy it might be!

Date:

Astronomy

Jul. 28, 2013 Rise Set
Actual Time 6:03 AM CDT 7:45 PM CDT
Civil Twilight 5:37 AM CDT 8:11 PM CDT
Nautical Twilight 5:05 AM CDT 8:43 PM CDT
Astronomical Twilight 4:31 AM CDT 9:16 PM CDT
Moon 11:40 PM CDT (7/28) 12:13 PM CDT (7/28)
Length of Visible Light 14h 34m
Length of Day
13h 41m
Waning Gibbous, 60% of the Moon is Illuminated
Jul 28
Waning Gibbous
Jul 29
Last Quarter
Aug 6
New
Aug 14
First Quarter
Aug 20
Full

Hourly Weather History & Observations

Time (CDT) Temp. Heat Index Dew Point Humidity Pressure Visibility Wind Dir Wind Speed Gust Speed Precip Events Conditions
12:56 AM 75.0 °F - 71.1 °F 87% 29.88 in 10.0 mi SSE 9.2 mph - 0.00 in   Partly Cloudy
1:56 AM 75.0 °F - 71.1 °F 87% 29.89 in 10.0 mi SSE 4.6 mph - N/A   Overcast
2:56 AM 75.0 °F - 71.1 °F 87% 29.88 in 10.0 mi South 9.2 mph - 0.01 in   Overcast
3:18 AM 75.2 °F - 71.6 °F 89% 29.92 in 10.0 mi SSE 5.8 mph - N/A   Overcast
3:56 AM 73.0 °F - 70.0 °F 90% 29.86 in 10.0 mi SE 4.6 mph - N/A   Scattered Clouds
4:56 AM 73.9 °F - 70.0 °F 87% 29.88 in 9.0 mi South 5.8 mph - N/A   Overcast
5:40 AM 73.4 °F - 71.6 °F 94% 29.93 in 7.0 mi South 4.6 mph - 0.01 in Rain Light Rain
5:56 AM 73.9 °F - 71.1 °F 91% 29.90 in 5.0 mi South 5.8 mph - 0.02 in Rain Light Rain
6:03 AM 75.2 °F - 71.6 °F 89% 29.95 in 7.0 mi SSW 9.2 mph - 0.01 in Rain Light Rain
6:09 AM 75.2 °F - 71.6 °F 89% 29.95 in 2.5 mi South 8.1 mph - 0.05 in Rain Heavy Rain
6:16 AM 75.2 °F - 71.6 °F 89% 29.95 in 3.0 mi South 8.1 mph - 0.06 in Rain Light Rain
6:36 AM 73.4 °F - 71.6 °F 94% 29.94 in 4.0 mi SE 5.8 mph - 0.07 in Rain Light Rain
6:56 AM 73.9 °F - 72.0 °F 93% 29.90 in 6.0 mi ESE 5.8 mph - 0.08 in Rain Light Rain
7:03 AM 73.4 °F - 71.6 °F 94% 29.94 in 8.0 mi SE 5.8 mph - 0.00 in   Overcast
7:11 AM 73.4 °F - 71.6 °F 94% 29.95 in 8.0 mi ESE 6.9 mph - 0.00 in   Overcast
7:22 AM 73.4 °F - 71.6 °F 94% 29.94 in 10.0 mi SE 9.2 mph - 0.00 in   Mostly Cloudy
7:56 AM 75.0 °F - 73.0 °F 94% 29.90 in 10.0 mi Variable 3.5 mph - 0.00 in   Overcast
8:19 AM 75.2 °F - 73.4 °F 94% 29.95 in 10.0 mi SSE 3.5 mph - N/A   Overcast
8:56 AM 77.0 °F - 72.0 °F 84% 29.91 in 10.0 mi ESE 6.9 mph - N/A   Overcast
9:08 AM 78.8 °F - 73.4 °F 83% 29.95 in 10.0 mi ESE 4.6 mph - N/A   Mostly Cloudy
9:28 AM 80.6 °F 85.4 °F 73.4 °F 79% 29.94 in 10.0 mi SE 3.5 mph - N/A   Scattered Clouds
9:56 AM 81.0 °F 85.8 °F 73.0 °F 77% 29.92 in 10.0 mi South 5.8 mph - 0.00 in   Scattered Clouds
10:12 AM 82.4 °F 88.2 °F 73.4 °F 74% 29.96 in 10.0 mi Variable 4.6 mph - N/A   Mostly Cloudy
10:20 AM 82.4 °F 88.2 °F 73.4 °F 74% 29.96 in 10.0 mi Calm Calm - N/A   Mostly Cloudy
10:43 AM 82.4 °F 88.2 °F 73.4 °F 74% 29.96 in 10.0 mi SSE 5.8 mph - N/A   Scattered Clouds
10:56 AM 84.0 °F 90.2 °F 73.0 °F 69% 29.91 in 10.0 mi Variable 3.5 mph - N/A   Scattered Clouds
11:56 AM 84.0 °F 89.6 °F 72.0 °F 67% 29.93 in 10.0 mi Variable 3.5 mph - N/A   Overcast
12:23 PM 86.0 °F 93.4 °F 73.4 °F 66% 29.97 in 10.0 mi SE 6.9 mph - N/A   Mostly Cloudy
12:56 PM 86.0 °F 93.8 °F 73.9 °F 67% 29.91 in 10.0 mi SSW 4.6 mph - N/A   Mostly Cloudy
1:56 PM 90.0 °F 97.9 °F 73.0 °F 57% 29.90 in 10.0 mi SW 5.8 mph - N/A   Scattered Clouds
2:56 PM 89.1 °F 98.0 °F 73.9 °F 61% 29.89 in 10.0 mi South 11.5 mph 16.1 mph N/A   Scattered Clouds
3:56 PM 88.0 °F 96.5 °F 73.9 °F 63% 29.89 in 10.0 mi South 13.8 mph - N/A   Clear
4:56 PM 87.1 °F 94.5 °F 73.0 °F 63% 29.90 in 10.0 mi South 17.3 mph - N/A   Mostly Cloudy
5:56 PM 84.9 °F 91.4 °F 73.0 °F 67% 29.91 in 10.0 mi South 13.8 mph - N/A   Mostly Cloudy
6:56 PM 82.9 °F 88.0 °F 72.0 °F 69% 29.92 in 10.0 mi South 8.1 mph - 0.00 in   Mostly Cloudy
7:56 PM 81.0 °F 85.8 °F 73.0 °F 77% 29.92 in 9.0 mi South 8.1 mph - N/A   Mostly Cloudy
8:56 PM 80.1 °F 84.2 °F 73.0 °F 79% 29.95 in 10.0 mi South 6.9 mph - N/A   Mostly Cloudy
9:56 PM 80.1 °F 84.2 °F 73.0 °F 79% 29.96 in 9.0 mi South 5.8 mph - N/A   Scattered Clouds
10:56 PM 79.0 °F - 73.0 °F 82% 29.96 in 10.0 mi South 5.8 mph - N/A   Clear
11:56 PM 77.0 °F - 73.0 °F 88% 29.96 in 6.0 mi Calm Calm - N/A   Clear